<?xml version="1.0" encoding="UTF-8" standalone="no" ?>
<gpx xmlns="http://www.topografix.com/GPX/1/1" creator="http://nakarte.me" xmlns:xsi="http://www.w3.org/2001/XMLSchema-instance" xsi:schemaLocation="http://www.topografix.com/GPX/1/1 http://www.topografix.com/GPX/1/1/gpx.xsd" version="1.1">
	<metadata>
		<time>2022-04-15T22:06:11.496Z</time>
	</metadata>
	<trk>
		<name>Ruler</name>
		<trkseg>
			<trkpt lat="51.849786" lon="37.723191"><time>1970-01-01T00:00:01.000Z</time></trkpt>
			<trkpt lat="51.848841" lon="37.724736"><time>1970-01-01T00:00:01.000Z</time></trkpt>
			<trkpt lat="51.848090" lon="37.723877"><time>1970-01-01T00:00:01.000Z</time></trkpt>
			<trkpt lat="51.842619" lon="37.734177"><time>1970-01-01T00:00:01.000Z</time></trkpt>
			<trkpt lat="51.842576" lon="37.734477"><time>1970-01-01T00:00:01.000Z</time></trkpt>
			<trkpt lat="51.838155" lon="37.734434"><time>1970-01-01T00:00:01.000Z</time></trkpt>
			<trkpt lat="51.834443" lon="37.735679"><time>1970-01-01T00:00:01.000Z</time></trkpt>
			<trkpt lat="51.833628" lon="37.735679"><time>1970-01-01T00:00:01.000Z</time></trkpt>
			<trkpt lat="51.833542" lon="37.736709"><time>1970-01-01T00:00:01.000Z</time></trkpt>
			<trkpt lat="51.833435" lon="37.741430"><time>1970-01-01T00:00:01.000Z</time></trkpt>
			<trkpt lat="51.832941" lon="37.743747"><time>1970-01-01T00:00:01.000Z</time></trkpt>
			<trkpt lat="51.831032" lon="37.746322"><time>1970-01-01T00:00:01.000Z</time></trkpt>
			<trkpt lat="51.817148" lon="37.752416"><time>1970-01-01T00:00:01.000Z</time></trkpt>
			<trkpt lat="51.809510" lon="37.759669"><time>1970-01-01T00:00:01.000Z</time></trkpt>
			<trkpt lat="51.792322" lon="37.763488"><time>1970-01-01T00:00:01.000Z</time></trkpt>
			<trkpt lat="51.787472" lon="37.761428"><time>1970-01-01T00:00:01.000Z</time></trkpt>
			<trkpt lat="51.786700" lon="37.762029"><time>1970-01-01T00:00:01.000Z</time></trkpt>
			<trkpt lat="51.779898" lon="37.777006"><time>1970-01-01T00:00:01.000Z</time></trkpt>
			<trkpt lat="51.777902" lon="37.779796"><time>1970-01-01T00:00:01.000Z</time></trkpt>
			<trkpt lat="51.770821" lon="37.793100"><time>1970-01-01T00:00:01.000Z</time></trkpt>
			<trkpt lat="51.768268" lon="37.793271"><time>1970-01-01T00:00:01.000Z</time></trkpt>
			<trkpt lat="51.764448" lon="37.794216"><time>1970-01-01T00:00:01.000Z</time></trkpt>
			<trkpt lat="51.763354" lon="37.795117"><time>1970-01-01T00:00:01.000Z</time></trkpt>
			<trkpt lat="51.762346" lon="37.796340"><time>1970-01-01T00:00:01.000Z</time></trkpt>
			<trkpt lat="51.761831" lon="37.797456"><time>1970-01-01T00:00:01.000Z</time></trkpt>
			<trkpt lat="51.761294" lon="37.798228"><time>1970-01-01T00:00:01.000Z</time></trkpt>
			<trkpt lat="51.761230" lon="37.799494"><time>1970-01-01T00:00:01.000Z</time></trkpt>
			<trkpt lat="51.760972" lon="37.800567"><time>1970-01-01T00:00:01.000Z</time></trkpt>
			<trkpt lat="51.760371" lon="37.801897"><time>1970-01-01T00:00:01.000Z</time></trkpt>
			<trkpt lat="51.759384" lon="37.803357"><time>1970-01-01T00:00:01.000Z</time></trkpt>
			<trkpt lat="51.758891" lon="37.803249"><time>1970-01-01T00:00:01.000Z</time></trkpt>
			<trkpt lat="51.758590" lon="37.803314"><time>1970-01-01T00:00:01.000Z</time></trkpt>
			<trkpt lat="51.758161" lon="37.803507"><time>1970-01-01T00:00:01.000Z</time></trkpt>
			<trkpt lat="51.757432" lon="37.803678"><time>1970-01-01T00:00:01.000Z</time></trkpt>
			<trkpt lat="51.755844" lon="37.804859"><time>1970-01-01T00:00:01.000Z</time></trkpt>
			<trkpt lat="51.755415" lon="37.805309"><time>1970-01-01T00:00:01.000Z</time></trkpt>
			<trkpt lat="51.755071" lon="37.805374"><time>1970-01-01T00:00:01.000Z</time></trkpt>
			<trkpt lat="51.754556" lon="37.805610"><time>1970-01-01T00:00:01.000Z</time></trkpt>
			<trkpt lat="51.751981" lon="37.808721"><time>1970-01-01T00:00:01.000Z</time></trkpt>
			<trkpt lat="51.751424" lon="37.809622"><time>1970-01-01T00:00:01.000Z</time></trkpt>
			<trkpt lat="51.750522" lon="37.811253"><time>1970-01-01T00:00:01.000Z</time></trkpt>
			<trkpt lat="51.748741" lon="37.813184"><time>1970-01-01T00:00:01.000Z</time></trkpt>
			<trkpt lat="51.746917" lon="37.814686"><time>1970-01-01T00:00:01.000Z</time></trkpt>
			<trkpt lat="51.746553" lon="37.815888"><time>1970-01-01T00:00:01.000Z</time></trkpt>
			<trkpt lat="51.746617" lon="37.817347"><time>1970-01-01T00:00:01.000Z</time></trkpt>
			<trkpt lat="51.745823" lon="37.818849"><time>1970-01-01T00:00:01.000Z</time></trkpt>
			<trkpt lat="51.744385" lon="37.821939"><time>1970-01-01T00:00:01.000Z</time></trkpt>
			<trkpt lat="51.742583" lon="37.823913"><time>1970-01-01T00:00:01.000Z</time></trkpt>
			<trkpt lat="51.741746" lon="37.819664"><time>1970-01-01T00:00:01.000Z</time></trkpt>
			<trkpt lat="51.741446" lon="37.819536"><time>1970-01-01T00:00:01.000Z</time></trkpt>
			<trkpt lat="51.739386" lon="37.820630"><time>1970-01-01T00:00:01.000Z</time></trkpt>
			<trkpt lat="51.739279" lon="37.821424"><time>1970-01-01T00:00:01.000Z</time></trkpt>
			<trkpt lat="51.737755" lon="37.822411"><time>1970-01-01T00:00:01.000Z</time></trkpt>
			<trkpt lat="51.737991" lon="37.824750"><time>1970-01-01T00:00:01.000Z</time></trkpt>
			<trkpt lat="51.736875" lon="37.825072"><time>1970-01-01T00:00:01.000Z</time></trkpt>
			<trkpt lat="51.736317" lon="37.825136"><time>1970-01-01T00:00:01.000Z</time></trkpt>
			<trkpt lat="51.736038" lon="37.825029"><time>1970-01-01T00:00:01.000Z</time></trkpt>
			<trkpt lat="51.735738" lon="37.825179"><time>1970-01-01T00:00:01.000Z</time></trkpt>
			<trkpt lat="51.735588" lon="37.825823"><time>1970-01-01T00:00:01.000Z</time></trkpt>
			<trkpt lat="51.735330" lon="37.826037"><time>1970-01-01T00:00:01.000Z</time></trkpt>
			<trkpt lat="51.733571" lon="37.828719"><time>1970-01-01T00:00:01.000Z</time></trkpt>
			<trkpt lat="51.731404" lon="37.830994"><time>1970-01-01T00:00:01.000Z</time></trkpt>
			<trkpt lat="51.730610" lon="37.832153"><time>1970-01-01T00:00:01.000Z</time></trkpt>
			<trkpt lat="51.729451" lon="37.832839"><time>1970-01-01T00:00:01.000Z</time></trkpt>
			<trkpt lat="51.729000" lon="37.833483"><time>1970-01-01T00:00:01.000Z</time></trkpt>
			<trkpt lat="51.729494" lon="37.835328"><time>1970-01-01T00:00:01.000Z</time></trkpt>
			<trkpt lat="51.729601" lon="37.836358"><time>1970-01-01T00:00:01.000Z</time></trkpt>
			<trkpt lat="51.729880" lon="37.837131"><time>1970-01-01T00:00:01.000Z</time></trkpt>
			<trkpt lat="51.729623" lon="37.839062"><time>1970-01-01T00:00:01.000Z</time></trkpt>
			<trkpt lat="51.730052" lon="37.839534"><time>1970-01-01T00:00:01.000Z</time></trkpt>
			<trkpt lat="51.729623" lon="37.842238"><time>1970-01-01T00:00:01.000Z</time></trkpt>
			<trkpt lat="51.729151" lon="37.843225"><time>1970-01-01T00:00:01.000Z</time></trkpt>
			<trkpt lat="51.726018" lon="37.845027"><time>1970-01-01T00:00:01.000Z</time></trkpt>
			<trkpt lat="51.715482" lon="37.848418"><time>1970-01-01T00:00:01.000Z</time></trkpt>
			<trkpt lat="51.711663" lon="37.850306"><time>1970-01-01T00:00:01.000Z</time></trkpt>
			<trkpt lat="51.709109" lon="37.848976"><time>1970-01-01T00:00:01.000Z</time></trkpt>
			<trkpt lat="51.707199" lon="37.850349"><time>1970-01-01T00:00:01.000Z</time></trkpt>
			<trkpt lat="51.707307" lon="37.851636"><time>1970-01-01T00:00:01.000Z</time></trkpt>
			<trkpt lat="51.706985" lon="37.853825"><time>1970-01-01T00:00:01.000Z</time></trkpt>
			<trkpt lat="51.704109" lon="37.855155"><time>1970-01-01T00:00:01.000Z</time></trkpt>
			<trkpt lat="51.702243" lon="37.857087"><time>1970-01-01T00:00:01.000Z</time></trkpt>
			<trkpt lat="51.700891" lon="37.858631"><time>1970-01-01T00:00:01.000Z</time></trkpt>
			<trkpt lat="51.699324" lon="37.861593"><time>1970-01-01T00:00:01.000Z</time></trkpt>
			<trkpt lat="51.698938" lon="37.862923"><time>1970-01-01T00:00:01.000Z</time></trkpt>
			<trkpt lat="51.693273" lon="37.866785"><time>1970-01-01T00:00:01.000Z</time></trkpt>
			<trkpt lat="51.692222" lon="37.866957"><time>1970-01-01T00:00:01.000Z</time></trkpt>
			<trkpt lat="51.690377" lon="37.866742"><time>1970-01-01T00:00:01.000Z</time></trkpt>
			<trkpt lat="51.687651" lon="37.866914"><time>1970-01-01T00:00:01.000Z</time></trkpt>
			<trkpt lat="51.685377" lon="37.866871"><time>1970-01-01T00:00:01.000Z</time></trkpt>
			<trkpt lat="51.682029" lon="37.868116"><time>1970-01-01T00:00:01.000Z</time></trkpt>
			<trkpt lat="51.681600" lon="37.869146"><time>1970-01-01T00:00:01.000Z</time></trkpt>
			<trkpt lat="51.679347" lon="37.871892"><time>1970-01-01T00:00:01.000Z</time></trkpt>
			<trkpt lat="51.678746" lon="37.872879"><time>1970-01-01T00:00:01.000Z</time></trkpt>
			<trkpt lat="51.672524" lon="37.878201"><time>1970-01-01T00:00:01.000Z</time></trkpt>
			<trkpt lat="51.672416" lon="37.879102"><time>1970-01-01T00:00:01.000Z</time></trkpt>
			<trkpt lat="51.673361" lon="37.883093"><time>1970-01-01T00:00:01.000Z</time></trkpt>
			<trkpt lat="51.673425" lon="37.884295"><time>1970-01-01T00:00:01.000Z</time></trkpt>
			<trkpt lat="51.672073" lon="37.885861"><time>1970-01-01T00:00:01.000Z</time></trkpt>
			<trkpt lat="51.671236" lon="37.886205"><time>1970-01-01T00:00:01.000Z</time></trkpt>
			<trkpt lat="51.670871" lon="37.886033"><time>1970-01-01T00:00:01.000Z</time></trkpt>
			<trkpt lat="51.670206" lon="37.886312"><time>1970-01-01T00:00:01.000Z</time></trkpt>
			<trkpt lat="51.669498" lon="37.887149"><time>1970-01-01T00:00:01.000Z</time></trkpt>
			<trkpt lat="51.667889" lon="37.887792"><time>1970-01-01T00:00:01.000Z</time></trkpt>
			<trkpt lat="51.664198" lon="37.890303"><time>1970-01-01T00:00:01.000Z</time></trkpt>
			<trkpt lat="51.662718" lon="37.891526"><time>1970-01-01T00:00:01.000Z</time></trkpt>
			<trkpt lat="51.661366" lon="37.893350"><time>1970-01-01T00:00:01.000Z</time></trkpt>
			<trkpt lat="51.660593" lon="37.894273"><time>1970-01-01T00:00:01.000Z</time></trkpt>
			<trkpt lat="51.659284" lon="37.895152"><time>1970-01-01T00:00:01.000Z</time></trkpt>
			<trkpt lat="51.656967" lon="37.896247"><time>1970-01-01T00:00:01.000Z</time></trkpt>
			<trkpt lat="51.656323" lon="37.894809"><time>1970-01-01T00:00:01.000Z</time></trkpt>
			<trkpt lat="51.656688" lon="37.892148"><time>1970-01-01T00:00:01.000Z</time></trkpt>
			<trkpt lat="51.645530" lon="37.873952"><time>1970-01-01T00:00:01.000Z</time></trkpt>
			<trkpt lat="51.644092" lon="37.872579"><time>1970-01-01T00:00:01.000Z</time></trkpt>
			<trkpt lat="51.639307" lon="37.863867"><time>1970-01-01T00:00:01.000Z</time></trkpt>
			<trkpt lat="51.638299" lon="37.863996"><time>1970-01-01T00:00:01.000Z</time></trkpt>
			<trkpt lat="51.637204" lon="37.866485"><time>1970-01-01T00:00:01.000Z</time></trkpt>
			<trkpt lat="51.635123" lon="37.868802"><time>1970-01-01T00:00:01.000Z</time></trkpt>
			<trkpt lat="51.632183" lon="37.870562"><time>1970-01-01T00:00:01.000Z</time></trkpt>
			<trkpt lat="51.629823" lon="37.871334"><time>1970-01-01T00:00:01.000Z</time></trkpt>
			<trkpt lat="51.627441" lon="37.871206"><time>1970-01-01T00:00:01.000Z</time></trkpt>
			<trkpt lat="51.626883" lon="37.871849"><time>1970-01-01T00:00:01.000Z</time></trkpt>
			<trkpt lat="51.622098" lon="37.867043"><time>1970-01-01T00:00:01.000Z</time></trkpt>
			<trkpt lat="51.613601" lon="37.862580"><time>1970-01-01T00:00:01.000Z</time></trkpt>
			<trkpt lat="51.613150" lon="37.864854"><time>1970-01-01T00:00:01.000Z</time></trkpt>
			<trkpt lat="51.612743" lon="37.864747"><time>1970-01-01T00:00:01.000Z</time></trkpt>
			<trkpt lat="51.611369" lon="37.873974"><time>1970-01-01T00:00:01.000Z</time></trkpt>
			<trkpt lat="51.610897" lon="37.873974"><time>1970-01-01T00:00:01.000Z</time></trkpt>
			<trkpt lat="51.609889" lon="37.874102"><time>1970-01-01T00:00:01.000Z</time></trkpt>
			<trkpt lat="51.608816" lon="37.874532"><time>1970-01-01T00:00:01.000Z</time></trkpt>
			<trkpt lat="51.606584" lon="37.875669"><time>1970-01-01T00:00:01.000Z</time></trkpt>
			<trkpt lat="51.606134" lon="37.876313"><time>1970-01-01T00:00:01.000Z</time></trkpt>
			<trkpt lat="51.605812" lon="37.876441"><time>1970-01-01T00:00:01.000Z</time></trkpt>
			<trkpt lat="51.604696" lon="37.876677"><time>1970-01-01T00:00:01.000Z</time></trkpt>
			<trkpt lat="51.603859" lon="37.876999"><time>1970-01-01T00:00:01.000Z</time></trkpt>
			<trkpt lat="51.603173" lon="37.877729"><time>1970-01-01T00:00:01.000Z</time></trkpt>
			<trkpt lat="51.602722" lon="37.878566"><time>1970-01-01T00:00:01.000Z</time></trkpt>
			<trkpt lat="51.602271" lon="37.878973"><time>1970-01-01T00:00:01.000Z</time></trkpt>
			<trkpt lat="51.601606" lon="37.880819"><time>1970-01-01T00:00:01.000Z</time></trkpt>
			<trkpt lat="51.601005" lon="37.880990"><time>1970-01-01T00:00:01.000Z</time></trkpt>
			<trkpt lat="51.600598" lon="37.880690"><time>1970-01-01T00:00:01.000Z</time></trkpt>
			<trkpt lat="51.600104" lon="37.881334"><time>1970-01-01T00:00:01.000Z</time></trkpt>
			<trkpt lat="51.598817" lon="37.881484"><time>1970-01-01T00:00:01.000Z</time></trkpt>
			<trkpt lat="51.598409" lon="37.881784"><time>1970-01-01T00:00:01.000Z</time></trkpt>
			<trkpt lat="51.598130" lon="37.881720"><time>1970-01-01T00:00:01.000Z</time></trkpt>
			<trkpt lat="51.597937" lon="37.882879"><time>1970-01-01T00:00:01.000Z</time></trkpt>
			<trkpt lat="51.598044" lon="37.884123"><time>1970-01-01T00:00:01.000Z</time></trkpt>
			<trkpt lat="51.598366" lon="37.885668"><time>1970-01-01T00:00:01.000Z</time></trkpt>
			<trkpt lat="51.595877" lon="37.887213"><time>1970-01-01T00:00:01.000Z</time></trkpt>
			<trkpt lat="51.594697" lon="37.887084"><time>1970-01-01T00:00:01.000Z</time></trkpt>
			<trkpt lat="51.593259" lon="37.886655"><time>1970-01-01T00:00:01.000Z</time></trkpt>
			<trkpt lat="51.591457" lon="37.886698"><time>1970-01-01T00:00:01.000Z</time></trkpt>
			<trkpt lat="51.589204" lon="37.886398"><time>1970-01-01T00:00:01.000Z</time></trkpt>
			<trkpt lat="51.588259" lon="37.886956"><time>1970-01-01T00:00:01.000Z</time></trkpt>
			<trkpt lat="51.587530" lon="37.887320"><time>1970-01-01T00:00:01.000Z</time></trkpt>
			<trkpt lat="51.586736" lon="37.887256"><time>1970-01-01T00:00:01.000Z</time></trkpt>
			<trkpt lat="51.585985" lon="37.887256"><time>1970-01-01T00:00:01.000Z</time></trkpt>
			<trkpt lat="51.584783" lon="37.888522"><time>1970-01-01T00:00:01.000Z</time></trkpt>
			<trkpt lat="51.583689" lon="37.889187"><time>1970-01-01T00:00:01.000Z</time></trkpt>
			<trkpt lat="51.583024" lon="37.890389"><time>1970-01-01T00:00:01.000Z</time></trkpt>
			<trkpt lat="51.581135" lon="37.892191"><time>1970-01-01T00:00:01.000Z</time></trkpt>
			<trkpt lat="51.579955" lon="37.892105"><time>1970-01-01T00:00:01.000Z</time></trkpt>
			<trkpt lat="51.579011" lon="37.892492"><time>1970-01-01T00:00:01.000Z</time></trkpt>
			<trkpt lat="51.577874" lon="37.893350"><time>1970-01-01T00:00:01.000Z</time></trkpt>
			<trkpt lat="51.574248" lon="37.891998"><time>1970-01-01T00:00:01.000Z</time></trkpt>
			<trkpt lat="51.572788" lon="37.892706"><time>1970-01-01T00:00:01.000Z</time></trkpt>
			<trkpt lat="51.572037" lon="37.893114"><time>1970-01-01T00:00:01.000Z</time></trkpt>
			<trkpt lat="51.569784" lon="37.895903"><time>1970-01-01T00:00:01.000Z</time></trkpt>
			<trkpt lat="51.568218" lon="37.896204"><time>1970-01-01T00:00:01.000Z</time></trkpt>
			<trkpt lat="51.565836" lon="37.897277"><time>1970-01-01T00:00:01.000Z</time></trkpt>
			<trkpt lat="51.564956" lon="37.898693"><time>1970-01-01T00:00:01.000Z</time></trkpt>
			<trkpt lat="51.563712" lon="37.900216"><time>1970-01-01T00:00:01.000Z</time></trkpt>
			<trkpt lat="51.562789" lon="37.903778"><time>1970-01-01T00:00:01.000Z</time></trkpt>
			<trkpt lat="51.563090" lon="37.906289"><time>1970-01-01T00:00:01.000Z</time></trkpt>
			<trkpt lat="51.561073" lon="37.906611"><time>1970-01-01T00:00:01.000Z</time></trkpt>
			<trkpt lat="51.560193" lon="37.907534"><time>1970-01-01T00:00:01.000Z</time></trkpt>
			<trkpt lat="51.559356" lon="37.908542"><time>1970-01-01T00:00:01.000Z</time></trkpt>
			<trkpt lat="51.558820" lon="37.910988"><time>1970-01-01T00:00:01.000Z</time></trkpt>
			<trkpt lat="51.556609" lon="37.912319"><time>1970-01-01T00:00:01.000Z</time></trkpt>
			<trkpt lat="51.555386" lon="37.912168"><time>1970-01-01T00:00:01.000Z</time></trkpt>
			<trkpt lat="51.554485" lon="37.911825"><time>1970-01-01T00:00:01.000Z</time></trkpt>
			<trkpt lat="51.553605" lon="37.910495"><time>1970-01-01T00:00:01.000Z</time></trkpt>
			<trkpt lat="51.553691" lon="37.909658"><time>1970-01-01T00:00:01.000Z</time></trkpt>
			<trkpt lat="51.554056" lon="37.908671"><time>1970-01-01T00:00:01.000Z</time></trkpt>
			<trkpt lat="51.553884" lon="37.907684"><time>1970-01-01T00:00:01.000Z</time></trkpt>
			<trkpt lat="51.553198" lon="37.906504"><time>1970-01-01T00:00:01.000Z</time></trkpt>
			<trkpt lat="51.551953" lon="37.906289"><time>1970-01-01T00:00:01.000Z</time></trkpt>
			<trkpt lat="51.551374" lon="37.906718"><time>1970-01-01T00:00:01.000Z</time></trkpt>
			<trkpt lat="51.550301" lon="37.906418"><time>1970-01-01T00:00:01.000Z</time></trkpt>
			<trkpt lat="51.547275" lon="37.903671"><time>1970-01-01T00:00:01.000Z</time></trkpt>
			<trkpt lat="51.546610" lon="37.902470"><time>1970-01-01T00:00:01.000Z</time></trkpt>
			<trkpt lat="51.544164" lon="37.901697"><time>1970-01-01T00:00:01.000Z</time></trkpt>
			<trkpt lat="51.541417" lon="37.899616"><time>1970-01-01T00:00:01.000Z</time></trkpt>
			<trkpt lat="51.538842" lon="37.900023"><time>1970-01-01T00:00:01.000Z</time></trkpt>
			<trkpt lat="51.535152" lon="37.902212"><time>1970-01-01T00:00:01.000Z</time></trkpt>
			<trkpt lat="51.530023" lon="37.906740"><time>1970-01-01T00:00:01.000Z</time></trkpt>
			<trkpt lat="51.527963" lon="37.908091"><time>1970-01-01T00:00:01.000Z</time></trkpt>
			<trkpt lat="51.527792" lon="37.908671"><time>1970-01-01T00:00:01.000Z</time></trkpt>
			<trkpt lat="51.528393" lon="37.913370"><time>1970-01-01T00:00:01.000Z</time></trkpt>
			<trkpt lat="51.530238" lon="37.913391"><time>1970-01-01T00:00:01.000Z</time></trkpt>
			<trkpt lat="51.532105" lon="37.914851"><time>1970-01-01T00:00:01.000Z</time></trkpt>
			<trkpt lat="51.532770" lon="37.914121"><time>1970-01-01T00:00:01.000Z</time></trkpt>
			<trkpt lat="51.533564" lon="37.914700"><time>1970-01-01T00:00:01.000Z</time></trkpt>
			<trkpt lat="51.534250" lon="37.916760"><time>1970-01-01T00:00:01.000Z</time></trkpt>
			<trkpt lat="51.534079" lon="37.919915"><time>1970-01-01T00:00:01.000Z</time></trkpt>
			<trkpt lat="51.534680" lon="37.920666"><time>1970-01-01T00:00:01.000Z</time></trkpt>
			<trkpt lat="51.535345" lon="37.922382"><time>1970-01-01T00:00:01.000Z</time></trkpt>
			<trkpt lat="51.535173" lon="37.923670"><time>1970-01-01T00:00:01.000Z</time></trkpt>
			<trkpt lat="51.535130" lon="37.924442"><time>1970-01-01T00:00:01.000Z</time></trkpt>
			<trkpt lat="51.535345" lon="37.925494"><time>1970-01-01T00:00:01.000Z</time></trkpt>
			<trkpt lat="51.534894" lon="37.926824"><time>1970-01-01T00:00:01.000Z</time></trkpt>
			<trkpt lat="51.539186" lon="37.930708"><time>1970-01-01T00:00:01.000Z</time></trkpt>
			<trkpt lat="51.539164" lon="37.933154"><time>1970-01-01T00:00:01.000Z</time></trkpt>
			<trkpt lat="51.538306" lon="37.937639"><time>1970-01-01T00:00:01.000Z</time></trkpt>
			<trkpt lat="51.537684" lon="37.938669"><time>1970-01-01T00:00:01.000Z</time></trkpt>
			<trkpt lat="51.536868" lon="37.938754"><time>1970-01-01T00:00:01.000Z</time></trkpt>
			<trkpt lat="51.536096" lon="37.939656"><time>1970-01-01T00:00:01.000Z</time></trkpt>
			<trkpt lat="51.535259" lon="37.939527"><time>1970-01-01T00:00:01.000Z</time></trkpt>
			<trkpt lat="51.532770" lon="37.942660"><time>1970-01-01T00:00:01.000Z</time></trkpt>
			<trkpt lat="51.531997" lon="37.942831"><time>1970-01-01T00:00:01.000Z</time></trkpt>
			<trkpt lat="51.530796" lon="37.947681"><time>1970-01-01T00:00:01.000Z</time></trkpt>
			<trkpt lat="51.525453" lon="37.962873"><time>1970-01-01T00:00:01.000Z</time></trkpt>
			<trkpt lat="51.524509" lon="37.964461"><time>1970-01-01T00:00:01.000Z</time></trkpt>
			<trkpt lat="51.525775" lon="37.983429"><time>1970-01-01T00:00:01.000Z</time></trkpt>
			<trkpt lat="51.527363" lon="38.005402"><time>1970-01-01T00:00:01.000Z</time></trkpt>
			<trkpt lat="51.523092" lon="38.022826"><time>1970-01-01T00:00:01.000Z</time></trkpt>
			<trkpt lat="51.521526" lon="38.024456"><time>1970-01-01T00:00:01.000Z</time></trkpt>
			<trkpt lat="51.521183" lon="38.031537"><time>1970-01-01T00:00:01.000Z</time></trkpt>
			<trkpt lat="51.520968" lon="38.031537"><time>1970-01-01T00:00:01.000Z</time></trkpt>
			<trkpt lat="51.520925" lon="38.032267"><time>1970-01-01T00:00:01.000Z</time></trkpt>
			<trkpt lat="51.520024" lon="38.032203"><time>1970-01-01T00:00:01.000Z</time></trkpt>
			<trkpt lat="51.520131" lon="38.033984"><time>1970-01-01T00:00:01.000Z</time></trkpt>
			<trkpt lat="51.520668" lon="38.039777"><time>1970-01-01T00:00:01.000Z</time></trkpt>
			<trkpt lat="51.520861" lon="38.041236"><time>1970-01-01T00:00:01.000Z</time></trkpt>
			<trkpt lat="51.524981" lon="38.062737"><time>1970-01-01T00:00:01.000Z</time></trkpt>
			<trkpt lat="51.521826" lon="38.092778"><time>1970-01-01T00:00:01.000Z</time></trkpt>
			<trkpt lat="51.519638" lon="38.115780"><time>1970-01-01T00:00:01.000Z</time></trkpt>
			<trkpt lat="51.518200" lon="38.122561"><time>1970-01-01T00:00:01.000Z</time></trkpt>
			<trkpt lat="51.534379" lon="38.150628"><time>1970-01-01T00:00:01.000Z</time></trkpt>
			<trkpt lat="51.530688" lon="38.154747"><time>1970-01-01T00:00:01.000Z</time></trkpt>
			<trkpt lat="51.528822" lon="38.157000"><time>1970-01-01T00:00:01.000Z</time></trkpt>
			<trkpt lat="51.529036" lon="38.166377"><time>1970-01-01T00:00:01.000Z</time></trkpt>
			<trkpt lat="51.528822" lon="38.168287"><time>1970-01-01T00:00:01.000Z</time></trkpt>
			<trkpt lat="51.527320" lon="38.171699"><time>1970-01-01T00:00:01.000Z</time></trkpt>
			<trkpt lat="51.526869" lon="38.173587"><time>1970-01-01T00:00:01.000Z</time></trkpt>
			<trkpt lat="51.527019" lon="38.174102"><time>1970-01-01T00:00:01.000Z</time></trkpt>
			<trkpt lat="51.527878" lon="38.175111"><time>1970-01-01T00:00:01.000Z</time></trkpt>
			<trkpt lat="51.528114" lon="38.176634"><time>1970-01-01T00:00:01.000Z</time></trkpt>
			<trkpt lat="51.527148" lon="38.179638"><time>1970-01-01T00:00:01.000Z</time></trkpt>
			<trkpt lat="51.526633" lon="38.180454"><time>1970-01-01T00:00:01.000Z</time></trkpt>
			<trkpt lat="51.526461" lon="38.181355"><time>1970-01-01T00:00:01.000Z</time></trkpt>
			<trkpt lat="51.527448" lon="38.183458"><time>1970-01-01T00:00:01.000Z</time></trkpt>
			<trkpt lat="51.528886" lon="38.187942"><time>1970-01-01T00:00:01.000Z</time></trkpt>
			<trkpt lat="51.530216" lon="38.190389"><time>1970-01-01T00:00:01.000Z</time></trkpt>
			<trkpt lat="51.530967" lon="38.191333"><time>1970-01-01T00:00:01.000Z</time></trkpt>
			<trkpt lat="51.532770" lon="38.193006"><time>1970-01-01T00:00:01.000Z</time></trkpt>
			<trkpt lat="51.534529" lon="38.195732"><time>1970-01-01T00:00:01.000Z</time></trkpt>
			<trkpt lat="51.533306" lon="38.197877"><time>1970-01-01T00:00:01.000Z</time></trkpt>
			<trkpt lat="51.532233" lon="38.201504"><time>1970-01-01T00:00:01.000Z</time></trkpt>
			<trkpt lat="51.534465" lon="38.224356"><time>1970-01-01T00:00:01.000Z</time></trkpt>
			<trkpt lat="51.535838" lon="38.232124"><time>1970-01-01T00:00:01.000Z</time></trkpt>
			<trkpt lat="51.536482" lon="38.234570"><time>1970-01-01T00:00:01.000Z</time></trkpt>
			<trkpt lat="51.537104" lon="38.237574"><time>1970-01-01T00:00:01.000Z</time></trkpt>
			<trkpt lat="51.541804" lon="38.259182"><time>1970-01-01T00:00:01.000Z</time></trkpt>
			<trkpt lat="51.543456" lon="38.267271"><time>1970-01-01T00:00:01.000Z</time></trkpt>
			<trkpt lat="51.546996" lon="38.274674"><time>1970-01-01T00:00:01.000Z</time></trkpt>
			<trkpt lat="51.549636" lon="38.280511"><time>1970-01-01T00:00:01.000Z</time></trkpt>
			<trkpt lat="51.551331" lon="38.290532"><time>1970-01-01T00:00:01.000Z</time></trkpt>
			<trkpt lat="51.553176" lon="38.300381"><time>1970-01-01T00:00:01.000Z</time></trkpt>
			<trkpt lat="51.553562" lon="38.310895"><time>1970-01-01T00:00:01.000Z</time></trkpt>
			<trkpt lat="51.553584" lon="38.313641"><time>1970-01-01T00:00:01.000Z</time></trkpt>
			<trkpt lat="51.553841" lon="38.316216"><time>1970-01-01T00:00:01.000Z</time></trkpt>
			<trkpt lat="51.554785" lon="38.320036"><time>1970-01-01T00:00:01.000Z</time></trkpt>
			<trkpt lat="51.555150" lon="38.320722"><time>1970-01-01T00:00:01.000Z</time></trkpt>
			<trkpt lat="51.555536" lon="38.322589"><time>1970-01-01T00:00:01.000Z</time></trkpt>
			<trkpt lat="51.556094" lon="38.323297"><time>1970-01-01T00:00:01.000Z</time></trkpt>
			<trkpt lat="51.554614" lon="38.327052"><time>1970-01-01T00:00:01.000Z</time></trkpt>
			<trkpt lat="51.555043" lon="38.330443"><time>1970-01-01T00:00:01.000Z</time></trkpt>
			<trkpt lat="51.552532" lon="38.331730"><time>1970-01-01T00:00:01.000Z</time></trkpt>
			<trkpt lat="51.551481" lon="38.332117"><time>1970-01-01T00:00:01.000Z</time></trkpt>
			<trkpt lat="51.551309" lon="38.333747"><time>1970-01-01T00:00:01.000Z</time></trkpt>
			<trkpt lat="51.551781" lon="38.334992"><time>1970-01-01T00:00:01.000Z</time></trkpt>
			<trkpt lat="51.550236" lon="38.344605"><time>1970-01-01T00:00:01.000Z</time></trkpt>
			<trkpt lat="51.549593" lon="38.346879"><time>1970-01-01T00:00:01.000Z</time></trkpt>
			<trkpt lat="51.546610" lon="38.355291"><time>1970-01-01T00:00:01.000Z</time></trkpt>
			<trkpt lat="51.546353" lon="38.356879"><time>1970-01-01T00:00:01.000Z</time></trkpt>
			<trkpt lat="51.547425" lon="38.358896"><time>1970-01-01T00:00:01.000Z</time></trkpt>
			<trkpt lat="51.547425" lon="38.361385"><time>1970-01-01T00:00:01.000Z</time></trkpt>
			<trkpt lat="51.547619" lon="38.361471"><time>1970-01-01T00:00:01.000Z</time></trkpt>
			<trkpt lat="51.547790" lon="38.362307"><time>1970-01-01T00:00:01.000Z</time></trkpt>
			<trkpt lat="51.547704" lon="38.364153"><time>1970-01-01T00:00:01.000Z</time></trkpt>
			<trkpt lat="51.547447" lon="38.364153"><time>1970-01-01T00:00:01.000Z</time></trkpt>
			<trkpt lat="51.547383" lon="38.365655"><time>1970-01-01T00:00:01.000Z</time></trkpt>
			<trkpt lat="51.547211" lon="38.366620"><time>1970-01-01T00:00:01.000Z</time></trkpt>
			<trkpt lat="51.538649" lon="38.367135"><time>1970-01-01T00:00:01.000Z</time></trkpt>
			<trkpt lat="51.537812" lon="38.369710"><time>1970-01-01T00:00:01.000Z</time></trkpt>
			<trkpt lat="51.538735" lon="38.377650"><time>1970-01-01T00:00:01.000Z</time></trkpt>
			<trkpt lat="51.537190" lon="38.389022"><time>1970-01-01T00:00:01.000Z</time></trkpt>
			<trkpt lat="51.525346" lon="38.402970"><time>1970-01-01T00:00:01.000Z</time></trkpt>
			<trkpt lat="51.522277" lon="38.413784"><time>1970-01-01T00:00:01.000Z</time></trkpt>
			<trkpt lat="51.511913" lon="38.440177"><time>1970-01-01T00:00:01.000Z</time></trkpt>
			<trkpt lat="51.511248" lon="38.443224"><time>1970-01-01T00:00:01.000Z</time></trkpt>
			<trkpt lat="51.507815" lon="38.443053"><time>1970-01-01T00:00:01.000Z</time></trkpt>
			<trkpt lat="51.504553" lon="38.442752"><time>1970-01-01T00:00:01.000Z</time></trkpt>
			<trkpt lat="51.503030" lon="38.443739"><time>1970-01-01T00:00:01.000Z</time></trkpt>
			<trkpt lat="51.502171" lon="38.445585"><time>1970-01-01T00:00:01.000Z</time></trkpt>
			<trkpt lat="51.501206" lon="38.457773"><time>1970-01-01T00:00:01.000Z</time></trkpt>
			<trkpt lat="51.502064" lon="38.478372"><time>1970-01-01T00:00:01.000Z</time></trkpt>
			<trkpt lat="51.502257" lon="38.488243"><time>1970-01-01T00:00:01.000Z</time></trkpt>
			<trkpt lat="51.500905" lon="38.499229"><time>1970-01-01T00:00:01.000Z</time></trkpt>
			<trkpt lat="51.499875" lon="38.503864"><time>1970-01-01T00:00:01.000Z</time></trkpt>
			<trkpt lat="51.500025" lon="38.505151"><time>1970-01-01T00:00:01.000Z</time></trkpt>
			<trkpt lat="51.506313" lon="38.518541"><time>1970-01-01T00:00:01.000Z</time></trkpt>
			<trkpt lat="51.505969" lon="38.524506"><time>1970-01-01T00:00:01.000Z</time></trkpt>
			<trkpt lat="51.509274" lon="38.528025"><time>1970-01-01T00:00:01.000Z</time></trkpt>
			<trkpt lat="51.510068" lon="38.529699"><time>1970-01-01T00:00:01.000Z</time></trkpt>
			<trkpt lat="51.512664" lon="38.532231"><time>1970-01-01T00:00:01.000Z</time></trkpt>
			<trkpt lat="51.511913" lon="38.538411"><time>1970-01-01T00:00:01.000Z</time></trkpt>
			<trkpt lat="51.512449" lon="38.540556"><time>1970-01-01T00:00:01.000Z</time></trkpt>
			<trkpt lat="51.511999" lon="38.542788"><time>1970-01-01T00:00:01.000Z</time></trkpt>
			<trkpt lat="51.511591" lon="38.544462"><time>1970-01-01T00:00:01.000Z</time></trkpt>
			<trkpt lat="51.512020" lon="38.545706"><time>1970-01-01T00:00:01.000Z</time></trkpt>
			<trkpt lat="51.514166" lon="38.548753"><time>1970-01-01T00:00:01.000Z</time></trkpt>
			<trkpt lat="51.513544" lon="38.554783"><time>1970-01-01T00:00:01.000Z</time></trkpt>
			<trkpt lat="51.514273" lon="38.553860"><time>1970-01-01T00:00:01.000Z</time></trkpt>
			<trkpt lat="51.515625" lon="38.554933"><time>1970-01-01T00:00:01.000Z</time></trkpt>
			<trkpt lat="51.518522" lon="38.560855"><time>1970-01-01T00:00:01.000Z</time></trkpt>
			<trkpt lat="51.525217" lon="38.578064"><time>1970-01-01T00:00:01.000Z</time></trkpt>
			<trkpt lat="51.526397" lon="38.578322"><time>1970-01-01T00:00:01.000Z</time></trkpt>
			<trkpt lat="51.526418" lon="38.579481"><time>1970-01-01T00:00:01.000Z</time></trkpt>
			<trkpt lat="51.528242" lon="38.587119"><time>1970-01-01T00:00:01.000Z</time></trkpt>
			<trkpt lat="51.528285" lon="38.591282"><time>1970-01-01T00:00:01.000Z</time></trkpt>
			<trkpt lat="51.529208" lon="38.597162"><time>1970-01-01T00:00:01.000Z</time></trkpt>
			<trkpt lat="51.529315" lon="38.603556"><time>1970-01-01T00:00:01.000Z</time></trkpt>
			<trkpt lat="51.529186" lon="38.605230"><time>1970-01-01T00:00:01.000Z</time></trkpt>
			<trkpt lat="51.529723" lon="38.605959"><time>1970-01-01T00:00:01.000Z</time></trkpt>
			<trkpt lat="51.531611" lon="38.606753"><time>1970-01-01T00:00:01.000Z</time></trkpt>
			<trkpt lat="51.532319" lon="38.607676"><time>1970-01-01T00:00:01.000Z</time></trkpt>
			<trkpt lat="51.533242" lon="38.608298"><time>1970-01-01T00:00:01.000Z</time></trkpt>
			<trkpt lat="51.534036" lon="38.609307"><time>1970-01-01T00:00:01.000Z</time></trkpt>
			<trkpt lat="51.534594" lon="38.609736"><time>1970-01-01T00:00:01.000Z</time></trkpt>
			<trkpt lat="51.534487" lon="38.610358"><time>1970-01-01T00:00:01.000Z</time></trkpt>
			<trkpt lat="51.534208" lon="38.610959"><time>1970-01-01T00:00:01.000Z</time></trkpt>
			<trkpt lat="51.533156" lon="38.611560"><time>1970-01-01T00:00:01.000Z</time></trkpt>
			<trkpt lat="51.532942" lon="38.612225"><time>1970-01-01T00:00:01.000Z</time></trkpt>
			<trkpt lat="51.533135" lon="38.614349"><time>1970-01-01T00:00:01.000Z</time></trkpt>
			<trkpt lat="51.533328" lon="38.615830"><time>1970-01-01T00:00:01.000Z</time></trkpt>
			<trkpt lat="51.533778" lon="38.616624"><time>1970-01-01T00:00:01.000Z</time></trkpt>
			<trkpt lat="51.534830" lon="38.617160"><time>1970-01-01T00:00:01.000Z</time></trkpt>
			<trkpt lat="51.535881" lon="38.617031"><time>1970-01-01T00:00:01.000Z</time></trkpt>
			<trkpt lat="51.539593" lon="38.615937"><time>1970-01-01T00:00:01.000Z</time></trkpt>
			<trkpt lat="51.537684" lon="38.623512"><time>1970-01-01T00:00:01.000Z</time></trkpt>
			<trkpt lat="51.537662" lon="38.624628"><time>1970-01-01T00:00:01.000Z</time></trkpt>
			<trkpt lat="51.536782" lon="38.625121"><time>1970-01-01T00:00:01.000Z</time></trkpt>
			<trkpt lat="51.536546" lon="38.625636"><time>1970-01-01T00:00:01.000Z</time></trkpt>
			<trkpt lat="51.536782" lon="38.634970"><time>1970-01-01T00:00:01.000Z</time></trkpt>
			<trkpt lat="51.537855" lon="38.639026"><time>1970-01-01T00:00:01.000Z</time></trkpt>
			<trkpt lat="51.538778" lon="38.641364"><time>1970-01-01T00:00:01.000Z</time></trkpt>
			<trkpt lat="51.539486" lon="38.643553"><time>1970-01-01T00:00:01.000Z</time></trkpt>
			<trkpt lat="51.539765" lon="38.645806"><time>1970-01-01T00:00:01.000Z</time></trkpt>
			<trkpt lat="51.539593" lon="38.647802"><time>1970-01-01T00:00:01.000Z</time></trkpt>
			<trkpt lat="51.539379" lon="38.651900"><time>1970-01-01T00:00:01.000Z</time></trkpt>
			<trkpt lat="51.538585" lon="38.658767"><time>1970-01-01T00:00:01.000Z</time></trkpt>
			<trkpt lat="51.538392" lon="38.665676"><time>1970-01-01T00:00:01.000Z</time></trkpt>
			<trkpt lat="51.538692" lon="38.667650"><time>1970-01-01T00:00:01.000Z</time></trkpt>
			<trkpt lat="51.538799" lon="38.669174"><time>1970-01-01T00:00:01.000Z</time></trkpt>
			<trkpt lat="51.540366" lon="38.672671"><time>1970-01-01T00:00:01.000Z</time></trkpt>
			<trkpt lat="51.541846" lon="38.675632"><time>1970-01-01T00:00:01.000Z</time></trkpt>
			<trkpt lat="51.543971" lon="38.677864"><time>1970-01-01T00:00:01.000Z</time></trkpt>
			<trkpt lat="51.544443" lon="38.678636"><time>1970-01-01T00:00:01.000Z</time></trkpt>
			<trkpt lat="51.544958" lon="38.678958"><time>1970-01-01T00:00:01.000Z</time></trkpt>
			<trkpt lat="51.545966" lon="38.681877"><time>1970-01-01T00:00:01.000Z</time></trkpt>
			<trkpt lat="51.546782" lon="38.682971"><time>1970-01-01T00:00:01.000Z</time></trkpt>
			<trkpt lat="51.546546" lon="38.684773"><time>1970-01-01T00:00:01.000Z</time></trkpt>
			<trkpt lat="51.546138" lon="38.691490"><time>1970-01-01T00:00:01.000Z</time></trkpt>
			<trkpt lat="51.546052" lon="38.695867"><time>1970-01-01T00:00:01.000Z</time></trkpt>
			<trkpt lat="51.545580" lon="38.698957"><time>1970-01-01T00:00:01.000Z</time></trkpt>
			<trkpt lat="51.545258" lon="38.701339"><time>1970-01-01T00:00:01.000Z</time></trkpt>
			<trkpt lat="51.546095" lon="38.705394"><time>1970-01-01T00:00:01.000Z</time></trkpt>
			<trkpt lat="51.546267" lon="38.706746"><time>1970-01-01T00:00:01.000Z</time></trkpt>
			<trkpt lat="51.547018" lon="38.708827"><time>1970-01-01T00:00:01.000Z</time></trkpt>
			<trkpt lat="51.547254" lon="38.713205"><time>1970-01-01T00:00:01.000Z</time></trkpt>
			<trkpt lat="51.548563" lon="38.720801"><time>1970-01-01T00:00:01.000Z</time></trkpt>
			<trkpt lat="51.548691" lon="38.723226"><time>1970-01-01T00:00:01.000Z</time></trkpt>
			<trkpt lat="51.549507" lon="38.729856"><time>1970-01-01T00:00:01.000Z</time></trkpt>
			<trkpt lat="51.550279" lon="38.733933"><time>1970-01-01T00:00:01.000Z</time></trkpt>
			<trkpt lat="51.551395" lon="38.736422"><time>1970-01-01T00:00:01.000Z</time></trkpt>
			<trkpt lat="51.551889" lon="38.737430"><time>1970-01-01T00:00:01.000Z</time></trkpt>
			<trkpt lat="51.553176" lon="38.738117"><time>1970-01-01T00:00:01.000Z</time></trkpt>
			<trkpt lat="51.553348" lon="38.738825"><time>1970-01-01T00:00:01.000Z</time></trkpt>
			<trkpt lat="51.553820" lon="38.742795"><time>1970-01-01T00:00:01.000Z</time></trkpt>
			<trkpt lat="51.554549" lon="38.745584"><time>1970-01-01T00:00:01.000Z</time></trkpt>
			<trkpt lat="51.555708" lon="38.748116"><time>1970-01-01T00:00:01.000Z</time></trkpt>
			<trkpt lat="51.559485" lon="38.753395"><time>1970-01-01T00:00:01.000Z</time></trkpt>
			<trkpt lat="51.560901" lon="38.752215"><time>1970-01-01T00:00:01.000Z</time></trkpt>
			<trkpt lat="51.561137" lon="38.756678"><time>1970-01-01T00:00:01.000Z</time></trkpt>
			<trkpt lat="51.561244" lon="38.758051"><time>1970-01-01T00:00:01.000Z</time></trkpt>
			<trkpt lat="51.561073" lon="38.762643"><time>1970-01-01T00:00:01.000Z</time></trkpt>
			<trkpt lat="51.563261" lon="38.767579"><time>1970-01-01T00:00:01.000Z</time></trkpt>
			<trkpt lat="51.564313" lon="38.771870"><time>1970-01-01T00:00:01.000Z</time></trkpt>
			<trkpt lat="51.565278" lon="38.772042"><time>1970-01-01T00:00:01.000Z</time></trkpt>
			<trkpt lat="51.564098" lon="38.778737"><time>1970-01-01T00:00:01.000Z</time></trkpt>
			<trkpt lat="51.567896" lon="38.786719"><time>1970-01-01T00:00:01.000Z</time></trkpt>
			<trkpt lat="51.569334" lon="38.787405"><time>1970-01-01T00:00:01.000Z</time></trkpt>
			<trkpt lat="51.571458" lon="38.789637"><time>1970-01-01T00:00:01.000Z</time></trkpt>
			<trkpt lat="51.573604" lon="38.789122"><time>1970-01-01T00:00:01.000Z</time></trkpt>
			<trkpt lat="51.574076" lon="38.790066"><time>1970-01-01T00:00:01.000Z</time></trkpt>
			<trkpt lat="51.575149" lon="38.789294"><time>1970-01-01T00:00:01.000Z</time></trkpt>
			<trkpt lat="51.575149" lon="38.791439"><time>1970-01-01T00:00:01.000Z</time></trkpt>
			<trkpt lat="51.576222" lon="38.794959"><time>1970-01-01T00:00:01.000Z</time></trkpt>
			<trkpt lat="51.577917" lon="38.798993"><time>1970-01-01T00:00:01.000Z</time></trkpt>
			<trkpt lat="51.580106" lon="38.804915"><time>1970-01-01T00:00:01.000Z</time></trkpt>
			<trkpt lat="51.579848" lon="38.809721"><time>1970-01-01T00:00:01.000Z</time></trkpt>
			<trkpt lat="51.580814" lon="38.815815"><time>1970-01-01T00:00:01.000Z</time></trkpt>
			<trkpt lat="51.582466" lon="38.818476"><time>1970-01-01T00:00:01.000Z</time></trkpt>
			<trkpt lat="51.584011" lon="38.818562"><time>1970-01-01T00:00:01.000Z</time></trkpt>
			<trkpt lat="51.586993" lon="38.822596"><time>1970-01-01T00:00:01.000Z</time></trkpt>
			<trkpt lat="51.587744" lon="38.827746"><time>1970-01-01T00:00:01.000Z</time></trkpt>
			<trkpt lat="51.587144" lon="38.831179"><time>1970-01-01T00:00:01.000Z</time></trkpt>
			<trkpt lat="51.586714" lon="38.837531"><time>1970-01-01T00:00:01.000Z</time></trkpt>
			<trkpt lat="51.589332" lon="38.850233"><time>1970-01-01T00:00:01.000Z</time></trkpt>
			<trkpt lat="51.590663" lon="38.850663"><time>1970-01-01T00:00:01.000Z</time></trkpt>
			<trkpt lat="51.593345" lon="38.857272"><time>1970-01-01T00:00:01.000Z</time></trkpt>
			<trkpt lat="51.594032" lon="38.861306"><time>1970-01-01T00:00:01.000Z</time></trkpt>
			<trkpt lat="51.592272" lon="38.863537"><time>1970-01-01T00:00:01.000Z</time></trkpt>
			<trkpt lat="51.591521" lon="38.868172"><time>1970-01-01T00:00:01.000Z</time></trkpt>
			<trkpt lat="51.595040" lon="38.877442"><time>1970-01-01T00:00:01.000Z</time></trkpt>
			<trkpt lat="51.595405" lon="38.881304"><time>1970-01-01T00:00:01.000Z</time></trkpt>
			<trkpt lat="51.596478" lon="38.886282"><time>1970-01-01T00:00:01.000Z</time></trkpt>
			<trkpt lat="51.595684" lon="38.890316"><time>1970-01-01T00:00:01.000Z</time></trkpt>
			<trkpt lat="51.596370" lon="38.893406"><time>1970-01-01T00:00:01.000Z</time></trkpt>
			<trkpt lat="51.598516" lon="38.894694"><time>1970-01-01T00:00:01.000Z</time></trkpt>
			<trkpt lat="51.601542" lon="38.900959"><time>1970-01-01T00:00:01.000Z</time></trkpt>
			<trkpt lat="51.604095" lon="38.901303"><time>1970-01-01T00:00:01.000Z</time></trkpt>
			<trkpt lat="51.605361" lon="38.901732"><time>1970-01-01T00:00:01.000Z</time></trkpt>
			<trkpt lat="51.606863" lon="38.900530"><time>1970-01-01T00:00:01.000Z</time></trkpt>
			<trkpt lat="51.607722" lon="38.901539"><time>1970-01-01T00:00:01.000Z</time></trkpt>
			<trkpt lat="51.609030" lon="38.904672"><time>1970-01-01T00:00:01.000Z</time></trkpt>
			<trkpt lat="51.613579" lon="38.900187"><time>1970-01-01T00:00:01.000Z</time></trkpt>
			<trkpt lat="51.613687" lon="38.900595"><time>1970-01-01T00:00:01.000Z</time></trkpt>
			<trkpt lat="51.614803" lon="38.902719"><time>1970-01-01T00:00:01.000Z</time></trkpt>
			<trkpt lat="51.616176" lon="38.905444"><time>1970-01-01T00:00:01.000Z</time></trkpt>
			<trkpt lat="51.617077" lon="38.906538"><time>1970-01-01T00:00:01.000Z</time></trkpt>
			<trkpt lat="51.618429" lon="38.906882"><time>1970-01-01T00:00:01.000Z</time></trkpt>
			<trkpt lat="51.619330" lon="38.907547"><time>1970-01-01T00:00:01.000Z</time></trkpt>
			<trkpt lat="51.620253" lon="38.908749"><time>1970-01-01T00:00:01.000Z</time></trkpt>
			<trkpt lat="51.627355" lon="38.921409"><time>1970-01-01T00:00:01.000Z</time></trkpt>
			<trkpt lat="51.628471" lon="38.923984"><time>1970-01-01T00:00:01.000Z</time></trkpt>
			<trkpt lat="51.631411" lon="38.928382"><time>1970-01-01T00:00:01.000Z</time></trkpt>
			<trkpt lat="51.635059" lon="38.929498"><time>1970-01-01T00:00:01.000Z</time></trkpt>
			<trkpt lat="51.636282" lon="38.930678"><time>1970-01-01T00:00:01.000Z</time></trkpt>
			<trkpt lat="51.635810" lon="38.934841"><time>1970-01-01T00:00:01.000Z</time></trkpt>
			<trkpt lat="51.631819" lon="38.976061"><time>1970-01-01T00:00:01.000Z</time></trkpt>
			<trkpt lat="51.631819" lon="38.983700"><time>1970-01-01T00:00:01.000Z</time></trkpt>
			<trkpt lat="51.633042" lon="38.993828"><time>1970-01-01T00:00:01.000Z</time></trkpt>
			<trkpt lat="51.635488" lon="39.001982"><time>1970-01-01T00:00:01.000Z</time></trkpt>
			<trkpt lat="51.646839" lon="39.024985"><time>1970-01-01T00:00:01.000Z</time></trkpt>
			<trkpt lat="51.651152" lon="39.035542"><time>1970-01-01T00:00:01.000Z</time></trkpt>
			<trkpt lat="51.652482" lon="39.043953"><time>1970-01-01T00:00:01.000Z</time></trkpt>
			<trkpt lat="51.652439" lon="39.048245"><time>1970-01-01T00:00:01.000Z</time></trkpt>
			<trkpt lat="51.644929" lon="39.141028"><time>1970-01-01T00:00:01.000Z</time></trkpt>
		</trkseg>
	</trk>
</gpx>